Location: Charlottesville
(38.0290°N, 78.4770°W)
Time: 22:38:46
(UTC-04:00)

Vanguard 2 Rocket - All Passes

Search period start: 21 October 2017 00:00
Search period end: 31 October 2017 00:00
Orbit: 555 x 3327 km, 32.9° (Epoch: 21 October)

Date Brightness Start Highest point End Pass type
(mag) Time Alt. Az. Time Alt. Az. Time Alt. Az.
21 Oct - 12:49:40 10° SW 12:54:23 41° SSE 13:01:53 10° E daylight
21 Oct - 15:01:01 10° W 15:07:37 63° S 15:19:33 10° ESE daylight
21 Oct - 17:13:23 10° W 17:22:19 50° SSW 17:37:28 10° SE daylight
21 Oct - 19:27:52 10° W 19:38:05 28° SSW 19:52:09 10° SSE visible
22 Oct - 11:51:41 10° SSW 11:55:30 27° SSE 12:00:49 10° E daylight
22 Oct - 14:02:28 10° WSW 14:08:04 59° S 14:17:49 10° E daylight
22 Oct - 16:14:26 10° W 16:22:06 55° SSW 16:35:40 10° ESE daylight
22 Oct - 18:27:49 10° W 18:37:21 33° SSW 18:51:44 10° SSE visible
22 Oct - 20:47:32 10° WSW 20:53:23 13° SW 20:59:58 10° SSW visible
23 Oct - 10:54:13 10° S 10:56:47 15° SSE 10:59:46 10° ESE daylight
23 Oct - 13:04:03 10° WSW 13:08:48 50° SSE 13:16:32 10° E daylight
23 Oct - 15:15:42 10° W 15:22:13 58° S 15:33:52 10° ESE daylight
23 Oct - 17:28:21 10° W 17:36:53 39° SSW 17:50:43 10° SE daylight
23 Oct - 19:44:32 10° WSW 19:52:34 18° SSW 20:02:44 10° S visible
24 Oct - 12:05:46 10° SW 12:09:49 37° SSE 12:15:41 10° E daylight
24 Oct - 14:17:06 10° WSW 14:22:39 58° S 14:32:17 10° ESE daylight
24 Oct - 16:29:16 10° W 16:36:42 44° SSW 16:49:22 10° SE daylight
24 Oct - 18:43:37 10° WSW 18:51:55 23° SSW 19:03:26 10° SSE visible
25 Oct - 11:07:39 10° SSW 11:11:00 24° SSE 11:15:09 10° E daylight
25 Oct - 13:18:35 10° WSW 13:23:21 54° S 13:31:06 10° E daylight
25 Oct - 15:30:27 10° W 15:36:50 48° SSW 15:47:56 10° ESE daylight
25 Oct - 17:43:41 10° WSW 17:51:30 28° SSW 18:03:14 10° SSE daylight
26 Oct - 10:10:00 10° S 10:12:14 15° SSE 10:14:38 10° ESE daylight
26 Oct - 12:20:09 10° WSW 12:24:17 45° SSE 12:30:22 10° E daylight
26 Oct - 14:31:48 10° W 14:37:16 51° S 14:46:37 10° ESE daylight
26 Oct - 16:44:21 10° W 16:51:20 33° SSW 17:02:31 10° SE daylight
26 Oct - 19:01:06 10° WSW 19:06:33 14° SSW 19:13:11 10° S visible
27 Oct - 11:21:44 10° SW 11:25:24 34° SSE 11:30:03 10° E daylight
27 Oct - 13:33:14 10° WSW 13:37:58 52° S 13:45:35 10° ESE daylight
27 Oct - 15:45:22 10° W 15:51:29 37° SSW 16:01:35 10° SE daylight
27 Oct - 17:59:56 10° WSW 18:06:10 18° SSW 18:14:33 10° S daylight
28 Oct - 10:23:24 10° SSW 10:26:35 23° SSE 10:30:04 10° ESE daylight
28 Oct - 12:34:42 10° WSW 12:38:51 49° S 12:44:57 10° ESE daylight
28 Oct - 14:46:37 10° W 14:51:54 41° SSW 15:00:39 10° SE daylight
28 Oct - 16:59:57 10° WSW 17:06:02 22° SSW 17:14:49 10° SSE daylight
29 Oct - 09:25:16 10° SSW 09:27:44 15° SSE 09:30:09 10° ESE daylight
29 Oct - 11:36:08 10° WSW 11:39:55 42° S 11:44:46 10° E daylight
29 Oct - 13:47:58 10° W 13:52:35 44° S 13:59:53 10° ESE daylight
29 Oct - 16:00:36 10° WSW 16:06:10 26° SSW 16:14:36 10° SSE daylight
30 Oct - 08:28:08 10° SSE 08:28:45 10° SSE 08:29:22 10° SSE daylight
30 Oct - 10:37:29 10° SW 10:41:03 33° SSE 10:44:59 10° ESE daylight
30 Oct - 12:49:22 10° WSW 12:53:28 46° S 12:59:26 10° ESE daylight
30 Oct - 15:01:37 10° WSW 15:06:35 30° SSW 15:14:13 10° SE daylight
30 Oct - 17:17:04 10° SW 17:20:47 13° SSW 17:25:17 10° S daylight
